EW4092 Weather Reports


Display with metric or nautical units.
time (UTC)temp
F
wind
direction
speed
MPH
gust
MPH
rain 1hr
in
rain 24hr
in
rain mn
in
humidity
%
barometer
mb
20260502163046 72 112 2.0 6.0 0.00 0.00 0.00 39 1015.5
20260502161533 70 146 2.0 6.0 0.00 0.00 0.00 41 1015.4
20260502151529 65 108 1.0 5.0 0.00 0.00 0.00 51 1015.1
20260502123105 58 115 0.0 4.0 0.00 0.00 0.00 61 1014.3
20260502121600 57 104 1.0 2.0 0.00 0.00 0.00 62 1014.4
20260502114601 57 101 0.0 4.0 0.00 0.00 0.00 62 1014.3
20260502113104 57 105 1.0 4.0 0.00 0.00 0.00 62 1014.3
20260502111601 58 105 0.0 2.0 0.00 0.00 0.00 60 1014.2
20260502110056 59 123 0.0 2.0 0.00 0.00 0.00 58 1014.3
20260502104554 59 90 0.0 2.0 0.00 0.00 0.00 57 1014.4
20260502103103 58 112 1.0 3.0 0.00 0.00 0.00 59 1014.5
20260502101600 56 106 1.0 2.0 0.00 0.00 0.00 64 1014.5
20260502100118 56 81 0.0 0.0 0.00 0.00 0.00 65 1014.5
20260502070029 60 106 0.0 3.0 0.00 0.00 0.00 60 1014.5
20260502064528 59 104 0.0 1.0 0.00 0.00 0.00 61 1014.3
20260502063028 59 104 0.0 1.0 0.00 0.00 0.00 61 1014.3
20260502061534 59 104 0.0 0.0 0.00 0.00 0.00 60 1014.2
20260502060028 60 103 0.0 2.0 0.00 0.00 0.00 60 1014.5
20260502054526 60 84 0.0 2.0 0.00 0.00 0.00 61 1014.5
20260502053026 61 53 0.0 2.0 0.00 0.00 0.00 61 1014.4
20260502051526 62 108 0.0 1.0 0.00 0.00 0.00 58 1014.4
20260502050030 63 109 1.0 2.0 0.00 0.00 0.00 57 1014.5
20260502044524 63 86 0.0 1.0 0.00 0.00 0.00 56 1014.4
20260502043025 62 77 0.0 1.0 0.00 0.00 0.00 57 1014.1
20260502041529 63 65 0.0 2.0 0.00 0.00 0.00 54 1013.9
20260502040022 66 65 0.0 1.0 0.00 0.00 0.00 48 1013.6
20260502034522 67 65 0.0 0.0 0.00 0.00 0.00 46 1013.5
20260502033025 68 65 0.0 1.0 0.00 0.00 0.00 43 1013.4
20260502031521 70 34 0.0 2.0 0.00 0.00 0.00 39 1013.2
20260502030021 71 114 0.0 0.0 0.00 0.00 0.00 38 1013.0
20260502024521 74 114 0.0 1.0 0.00 0.00 0.00 36 1013.0
20260502023019 74 114 0.0 1.0 0.00 0.00 0.00 33 1012.9
20260502021519 75 102 0.0 2.0 0.00 0.00 0.00 32 1012.8
20260502020018 77 92 0.0 2.0 0.00 0.00 0.00 29 1012.9
20260502014517 78 71 1.0 2.0 0.00 0.00 0.00 26 1012.7
20260502013016 78 53 0.0 1.0 0.00 0.00 0.00 27 1012.8
20260502011515 78 53 0.0 3.0 0.00 0.00 0.00 27 1012.9
20260502010013 78 207 0.0 2.0 0.00 0.00 0.00 26 1013.0
20260502004512 78 228 1.0 4.0 0.00 0.00 0.00 26 1013.1
20260502003013 79 16 1.0 3.0 0.00 0.00 0.00 27 1013.3
20260502001508 78 39 0.0 3.0 0.00 0.00 0.00 26 1013.4
20260502000014 78 253 1.0 3.0 0.00 0.00 0.00 26 1013.6
20260501234506 78 62 0.0 8.0 0.00 0.00 0.00 26 1013.8
20260501233003 78 104 1.0 4.0 0.00 0.00 0.00 25 1013.9
20260501231501 78 91 0.0 3.0 0.00 0.00 0.00 26 1014.2
20260501224558 78 248 1.0 5.0 0.00 0.00 0.00 25 1014.6
20260501223102 77 271 2.0 4.0 0.00 0.00 0.00 25 1014.8
20260501221552 77 30 1.0 5.0 0.00 0.00 0.00 25 1015.0
20260501220053 77 332 2.0 6.0 0.00 0.00 0.00 25 1015.2
20260501214555 78 24 2.0 7.0 0.00 0.00 0.00 26 1015.4
20260501213045 77 26 3.0 6.0 0.00 0.00 0.00 25 1015.6
20260501211549 77 335 2.0 6.0 0.00 0.00 0.00 25 1015.6
20260501210044 76 341 1.0 7.0 0.00 0.00 0.00 26 1015.8
20260501204613 75 29 1.0 9.0 0.00 0.00 0.00 27 1015.8
20260501203037 76 225 2.0 6.0 0.00 0.00 0.00 26 1015.9
20260501201534 75 297 2.0 6.0 0.00 0.00 0.00 26 1016.2
20260501200031 74 239 1.0 7.0 0.00 0.00 0.00 28 1016.3
20260501194532 74 259 2.0 6.0 0.00 0.00 0.00 30 1016.5
20260501193030 74 331 1.0 8.0 0.00 0.00 0.00 26 1016.6
20260501191526 73 142 1.0 5.0 0.00 0.00 0.00 29 1016.8
20260501190122 72 174 1.0 3.0 0.00 0.00 0.00 31 1017.0
20260501184525 71 329 1.0 5.0 0.00 0.00 0.00 31 1017.1
20260501183018 71 256 2.0 4.0 0.00 0.00 0.00 31 1017.3
20260501181514 69 345 2.0 4.0 0.00 0.00 0.00 34 1017.3
20260501180017 69 39 0.0 2.0 0.00 0.00 0.00 34 1017.4
20260501174529 68 105 0.0 3.0 0.00 0.00 0.00 36 1017.5
20260501173008 67 248 1.0 3.0 0.00 0.00 0.00 38 1017.7
20260501171503 66 169 0.0 4.0 0.00 0.00 0.00 41 1017.8
20260501170059 64 113 0.0 5.0 0.00 0.00 0.00 44 1017.8
20260501164601 63 113 0.0 3.0 0.00 0.00 0.00 47 1017.9